Location: Drawsko Pomorskie
(53.5317°N, 15.8111°E)
Time: 05:08:14
(UTC+01:00)

ISS - Pass Details

Date: 30 January 2019
Orbit: 403 x 411 km, 51.6° (Epoch: 21 February)

Event Time Altitude Azimuth Distance (km) Brightness Sun altitude
Rises 19:00:11 0° 266° (W) 2,337 1.6 -21.5°
Reaches altitude 10° 19:02:16 10° 263° (W) 1,478 0.2 -21.8°
Enters shadow 19:04:57 50° 234° (SW) 530 -3.0 -22.2°
